| time (UTC) | temp F | wind direction | speed MPH | gust MPH | rain 1hr in | rain 24hr in | rain mn in | humidity % | barometer mb |
| 20260509061118 | 54 | 257 | 3.0 | 8.0 | 0.00 | 0.00 | 0.00 | 61 | 991.2 |
| 20260509060005 | 55 | 251 | 3.0 | 5.0 | 0.00 | 0.00 | 0.00 | 59 | 991.3 |
| 20260509055403 | 55 | 232 | 1.0 | 4.0 | 0.00 | 0.00 | 0.00 | 58 | 991.3 |
| 20260509054716 | 56 | 74 | 2.0 | 5.0 | 0.00 | 0.00 | 0.00 | 56 | 991.3 |
| 20260509053603 | 57 | 55 | 3.0 | 5.0 | 0.00 | 0.00 | 0.00 | 53 | 991.4 |
| 20260509052704 | 57 | 47 | 3.0 | 6.0 | 0.00 | 0.00 | 0.00 | 52 | 991.3 |
| 20260509052016 | 58 | 45 | 4.0 | 6.0 | 0.00 | 0.00 | 0.00 | 52 | 991.4 |
| 20260509050903 | 58 | 49 | 4.0 | 6.0 | 0.00 | 0.00 | 0.00 | 51 | 991.3 |
| 20260509050217 | 58 | 53 | 2.0 | 6.0 | 0.00 | 0.00 | 0.00 | 50 | 991.4 |
| 20260509045403 | 54 | 0 | 0.0 | 0.0 | 0.00 | 0.00 | 0.00 | 58 | 991.4 |
| 20260509044504 | 55 | 0 | 0.0 | 0.0 | 0.00 | 0.00 | 0.00 | 57 | 991.3 |
| 20260509043603 | 55 | 0 | 0.0 | 0.0 | 0.00 | 0.00 | 0.00 | 57 | 991.4 |
| 20260509042704 | 55 | 0 | 0.0 | 0.0 | 0.00 | 0.00 | 0.00 | 56 | 991.4 |
| 20260509041803 | 55 | 0 | 0.0 | 0.0 | 0.00 | 0.00 | 0.00 | 56 | 991.4 |
| 20260509041118 | 56 | 0 | 0.0 | 0.0 | 0.00 | 0.00 | 0.00 | 55 | 991.2 |
| 20260509040003 | 57 | 0 | 0.0 | 0.0 | 0.00 | 0.00 | 0.00 | 53 | 991.0 |
| 20260509035403 | 58 | 0 | 0.0 | 0.0 | 0.00 | 0.00 | 0.00 | 52 | 990.9 |
| 20260509034503 | 60 | 0 | 0.0 | 0.0 | 0.00 | 0.00 | 0.00 | 49 | 990.7 |
| 20260509033603 | 61 | 0 | 0.0 | 0.0 | 0.00 | 0.00 | 0.00 | 46 | 990.6 |
| 20260509032703 | 61 | 0 | 0.0 | 0.0 | 0.00 | 0.00 | 0.00 | 44 | 990.5 |
| 20260509031803 | 62 | 296 | 0.0 | 1.0 | 0.00 | 0.00 | 0.00 | 43 | 990.3 |
| 20260509030903 | 64 | 292 | 0.0 | 1.0 | 0.00 | 0.00 | 0.00 | 41 | 990.1 |
| 20260509030005 | 65 | 222 | 0.0 | 4.0 | 0.00 | 0.00 | 0.00 | 39 | 990.0 |
| 20260509025403 | 65 | 223 | 1.0 | 3.0 | 0.00 | 0.00 | 0.00 | 38 | 989.9 |
| 20260509024503 | 66 | 222 | 1.0 | 5.0 | 0.00 | 0.00 | 0.00 | 37 | 989.8 |
| 20260509023603 | 66 | 232 | 1.0 | 5.0 | 0.00 | 0.00 | 0.00 | 35 | 989.6 |
| 20260509022703 | 67 | 223 | 1.0 | 5.0 | 0.00 | 0.00 | 0.00 | 35 | 989.3 |
| 20260509021803 | 68 | 233 | 2.0 | 7.0 | 0.00 | 0.00 | 0.00 | 34 | 989.0 |
| 20260509020903 | 68 | 229 | 4.0 | 10.0 | 0.00 | 0.00 | 0.00 | 34 | 989.1 |
| 20260509020004 | 68 | 220 | 2.0 | 6.0 | 0.00 | 0.00 | 0.00 | 35 | 988.8 |
| 20260509015403 | 68 | 217 | 2.0 | 6.0 | 0.00 | 0.00 | 0.00 | 34 | 988.8 |
| 20260509014503 | 69 | 220 | 3.0 | 8.0 | 0.00 | 0.00 | 0.00 | 33 | 988.7 |
| 20260509013603 | 70 | 225 | 2.0 | 7.0 | 0.00 | 0.00 | 0.00 | 32 | 988.6 |
| 20260509012713 | 70 | 218 | 1.0 | 7.0 | 0.00 | 0.00 | 0.00 | 32 | 988.3 |
| 20260509011803 | 70 | 235 | 3.0 | 7.0 | 0.00 | 0.00 | 0.00 | 32 | 988.1 |
| 20260509010903 | 70 | 242 | 3.0 | 10.0 | 0.00 | 0.00 | 0.00 | 32 | 988.0 |
| 20260509010004 | 70 | 229 | 3.0 | 8.0 | 0.00 | 0.00 | 0.00 | 32 | 988.2 |
| 20260509005403 | 70 | 228 | 3.0 | 9.0 | 0.00 | 0.00 | 0.00 | 32 | 988.3 |
| 20260509004503 | 70 | 229 | 3.0 | 9.0 | 0.00 | 0.00 | 0.00 | 32 | 988.4 |
| 20260509003603 | 70 | 226 | 5.0 | 13.0 | 0.00 | 0.00 | 0.00 | 31 | 987.8 |
| 20260509002704 | 71 | 235 | 2.0 | 7.0 | 0.00 | 0.00 | 0.00 | 32 | 987.9 |
| 20260509001803 | 71 | 250 | 3.0 | 11.0 | 0.00 | 0.00 | 0.00 | 32 | 987.5 |
| 20260509001118 | 71 | 240 | 5.0 | 13.0 | 0.00 | 0.00 | 0.00 | 32 | 987.3 |
| 20260509000003 | 72 | 235 | 2.0 | 8.0 | 0.00 | 0.00 | 0.00 | 31 | 987.8 |
| 20260508235403 | 72 | 237 | 2.0 | 11.0 | 0.00 | 0.00 | 0.00 | 32 | 987.8 |
| 20260508234504 | 72 | 228 | 4.0 | 11.0 | 0.00 | 0.00 | 0.00 | 31 | 987.6 |
| 20260508233603 | 73 | 231 | 3.0 | 12.0 | 0.00 | 0.00 | 0.00 | 30 | 987.4 |
| 20260508232703 | 73 | 239 | 2.0 | 7.0 | 0.00 | 0.00 | 0.00 | 31 | 987.5 |
| 20260508232018 | 73 | 238 | 4.0 | 8.0 | 0.00 | 0.00 | 0.00 | 30 | 987.6 |
| 20260508230903 | 76 | 235 | 3.0 | 9.0 | 0.00 | 0.00 | 0.00 | 29 | 987.5 |
| 20260508230004 | 76 | 235 | 3.0 | 11.0 | 0.00 | 0.00 | 0.00 | 29 | 987.5 |
| 20260508225403 | 76 | 244 | 2.0 | 9.0 | 0.00 | 0.00 | 0.00 | 29 | 987.5 |
| 20260508224503 | 76 | 230 | 3.0 | 9.0 | 0.00 | 0.00 | 0.00 | 30 | 987.6 |
| 20260508223603 | 76 | 241 | 4.0 | 10.0 | 0.00 | 0.00 | 0.00 | 29 | 987.7 |
| 20260508222704 | 76 | 238 | 3.0 | 11.0 | 0.00 | 0.00 | 0.00 | 29 | 987.8 |
| 20260508221803 | 76 | 244 | 3.0 | 8.0 | 0.00 | 0.00 | 0.00 | 30 | 988.0 |
| 20260508220903 | 76 | 246 | 1.0 | 6.0 | 0.00 | 0.00 | 0.00 | 29 | 988.0 |
| 20260508220003 | 76 | 229 | 2.0 | 8.0 | 0.00 | 0.00 | 0.00 | 31 | 988.1 |
| 20260508215403 | 76 | 240 | 3.0 | 10.0 | 0.00 | 0.00 | 0.00 | 30 | 988.1 |
| 20260508214503 | 76 | 240 | 4.0 | 13.0 | 0.00 | 0.00 | 0.00 | 30 | 988.2 |
| 20260508213603 | 76 | 234 | 4.0 | 11.0 | 0.00 | 0.00 | 0.00 | 30 | 988.4 |
| 20260508212703 | 76 | 234 | 3.0 | 10.0 | 0.00 | 0.00 | 0.00 | 31 | 988.5 |
| 20260508211804 | 76 | 248 | 2.0 | 9.0 | 0.00 | 0.00 | 0.00 | 30 | 988.6 |
| 20260508210903 | 76 | 255 | 2.0 | 9.0 | 0.00 | 0.00 | 0.00 | 30 | 988.7 |
| 20260508210003 | 76 | 256 | 2.0 | 7.0 | 0.00 | 0.00 | 0.00 | 30 | 988.8 |
| 20260508205618 | 76 | 251 | 2.0 | 7.0 | 0.00 | 0.00 | 0.00 | 30 | 988.8 |
| 20260508204717 | 76 | 238 | 2.0 | 7.0 | 0.00 | 0.00 | 0.00 | 30 | 989.0 |
| 20260508203817 | 75 | 255 | 2.0 | 7.0 | 0.00 | 0.00 | 0.00 | 31 | 989.1 |
| 20260508202703 | 75 | 247 | 2.0 | 7.0 | 0.00 | 0.00 | 0.00 | 32 | 989.3 |
| 20260508201803 | 74 | 265 | 1.0 | 6.0 | 0.00 | 0.00 | 0.00 | 32 | 989.4 |
| 20260508200904 | 74 | 269 | 2.0 | 10.0 | 0.00 | 0.00 | 0.00 | 31 | 989.4 |
| 20260508200218 | 74 | 241 | 3.0 | 10.0 | 0.00 | 0.00 | 0.00 | 31 | 989.5 |
| 20260508195403 | 74 | 268 | 2.0 | 6.0 | 0.00 | 0.00 | 0.00 | 33 | 989.6 |
| 20260508194503 | 74 | 248 | 2.0 | 6.0 | 0.00 | 0.00 | 0.00 | 33 | 989.8 |
| 20260508193603 | 73 | 248 | 3.0 | 10.0 | 0.00 | 0.00 | 0.00 | 35 | 989.8 |
| 20260508192703 | 73 | 281 | 2.0 | 10.0 | 0.00 | 0.00 | 0.00 | 34 | 989.9 |
| 20260508191804 | 72 | 233 | 3.0 | 10.0 | 0.00 | 0.00 | 0.00 | 34 | 990.0 |
| 20260508190903 | 72 | 237 | 3.0 | 9.0 | 0.00 | 0.00 | 0.00 | 35 | 990.0 |
| 20260508190004 | 72 | 240 | 4.0 | 10.0 | 0.00 | 0.00 | 0.00 | 35 | 990.2 |
| 20260508185403 | 72 | 233 | 4.0 | 9.0 | 0.00 | 0.00 | 0.00 | 34 | 990.3 |
| 20260508184718 | 72 | 236 | 4.0 | 9.0 | 0.00 | 0.00 | 0.00 | 35 | 990.4 |
| 20260508183603 | 71 | 259 | 2.0 | 9.0 | 0.00 | 0.00 | 0.00 | 34 | 990.6 |
| 20260508182703 | 71 | 247 | 3.0 | 7.0 | 0.00 | 0.00 | 0.00 | 34 | 990.9 |
| 20260508181803 | 71 | 249 | 2.0 | 9.0 | 0.00 | 0.00 | 0.00 | 35 | 991.0 |
| 20260508180903 | 71 | 253 | 3.0 | 9.0 | 0.00 | 0.00 | 0.00 | 35 | 991.1 |
| 20260508180004 | 70 | 249 | 3.0 | 8.0 | 0.00 | 0.00 | 0.00 | 35 | 991.3 |
| 20260508175403 | 70 | 252 | 3.0 | 11.0 | 0.00 | 0.00 | 0.00 | 36 | 991.4 |
| 20260508174503 | 70 | 251 | 3.0 | 9.0 | 0.00 | 0.00 | 0.00 | 37 | 991.5 |
| 20260508173603 | 70 | 252 | 3.0 | 8.0 | 0.00 | 0.00 | 0.00 | 36 | 991.5 |
| 20260508172917 | 70 | 244 | 2.0 | 9.0 | 0.00 | 0.00 | 0.00 | 36 | 991.7 |
| 20260508171803 | 69 | 244 | 2.0 | 10.0 | 0.00 | 0.00 | 0.00 | 37 | 991.7 |
| 20260508170903 | 68 | 137 | 4.0 | 18.0 | 0.00 | 0.00 | 0.00 | 39 | 991.9 |
| 20260508170003 | 66 | 126 | 8.0 | 18.0 | 0.00 | 0.00 | 0.00 | 41 | 992.0 |
| 20260508165404 | 66 | 118 | 8.0 | 16.0 | 0.00 | 0.00 | 0.00 | 39 | 992.1 |
| 20260508164503 | 65 | 124 | 9.0 | 15.0 | 0.00 | 0.00 | 0.00 | 39 | 992.1 |
| 20260508163603 | 65 | 127 | 10.0 | 19.0 | 0.00 | 0.00 | 0.00 | 40 | 992.1 |
| 20260508162703 | 65 | 110 | 10.0 | 16.0 | 0.00 | 0.00 | 0.00 | 42 | 992.2 |
| 20260508161803 | 65 | 97 | 9.0 | 16.0 | 0.00 | 0.00 | 0.00 | 42 | 992.2 |
| 20260508160903 | 64 | 84 | 11.0 | 17.0 | 0.00 | 0.00 | 0.00 | 41 | 992.4 |
| 20260508160004 | 65 | 87 | 11.0 | 15.0 | 0.00 | 0.00 | 0.00 | 40 | 992.4 |
| 20260508155618 | 65 | 86 | 11.0 | 17.0 | 0.00 | 0.00 | 0.00 | 41 | 992.5 |
| 20260508154504 | 67 | 90 | 6.0 | 15.0 | 0.00 | 0.00 | 0.00 | 37 | 992.4 |
| 20260508153603 | 67 | 284 | 1.0 | 3.0 | 0.00 | 0.00 | 0.00 | 34 | 992.4 |
| 20260508152703 | 67 | 231 | 2.0 | 5.0 | 0.00 | 0.00 | 0.00 | 38 | 992.5 |
| 20260508151803 | 67 | 125 | 2.0 | 5.0 | 0.00 | 0.00 | 0.00 | 33 | 992.5 |
| 20260508150903 | 66 | 282 | 1.0 | 3.0 | 0.00 | 0.00 | 0.00 | 36 | 992.4 |
| 20260508150004 | 64 | 308 | 1.0 | 3.0 | 0.00 | 0.00 | 0.00 | 36 | 992.4 |
| 20260508145403 | 63 | 334 | 1.0 | 4.0 | 0.00 | 0.00 | 0.00 | 38 | 992.5 |
| 20260508144503 | 62 | 280 | 2.0 | 6.0 | 0.00 | 0.00 | 0.00 | 39 | 992.6 |
| 20260508143604 | 61 | 271 | 3.0 | 9.0 | 0.00 | 0.00 | 0.00 | 40 | 992.7 |
| 20260508142703 | 60 | 318 | 2.0 | 5.0 | 0.00 | 0.00 | 0.00 | 42 | 992.7 |
| 20260508141803 | 59 | 324 | 3.0 | 5.0 | 0.00 | 0.00 | 0.00 | 45 | 992.8 |
| 20260508140903 | 58 | 320 | 2.0 | 4.0 | 0.00 | 0.00 | 0.00 | 47 | 993.0 |
| 20260508140217 | 58 | 313 | 2.0 | 4.0 | 0.00 | 0.00 | 0.00 | 48 | 993.1 |
| 20260508135403 | 57 | 320 | 2.0 | 5.0 | 0.00 | 0.00 | 0.00 | 49 | 993.2 |
| 20260508134503 | 55 | 314 | 2.0 | 4.0 | 0.00 | 0.00 | 0.00 | 52 | 993.3 |
| 20260508133603 | 54 | 309 | 5.0 | 12.0 | 0.00 | 0.00 | 0.00 | 52 | 993.3 |
| 20260508132917 | 54 | 306 | 4.0 | 12.0 | 0.00 | 0.00 | 0.00 | 53 | 993.3 |
| 20260508131804 | 52 | 329 | 2.0 | 4.0 | 0.00 | 0.00 | 0.00 | 58 | 993.1 |
| 20260508131118 | 52 | 313 | 2.0 | 4.0 | 0.00 | 0.00 | 0.00 | 59 | 993.1 |
| 20260508130003 | 50 | 312 | 5.0 | 11.0 | 0.00 | 0.00 | 0.00 | 58 | 993.0 |
| 20260508125403 | 49 | 350 | 3.0 | 8.0 | 0.00 | 0.00 | 0.00 | 63 | 993.0 |
| 20260508124503 | 47 | 316 | 2.0 | 5.0 | 0.00 | 0.00 | 0.00 | 68 | 993.1 |
| 20260508123603 | 46 | 323 | 2.0 | 5.0 | 0.00 | 0.00 | 0.00 | 70 | 993.0 |
| 20260508122703 | 45 | 321 | 2.0 | 6.0 | 0.00 | 0.00 | 0.00 | 71 | 993.0 |
| 20260508121804 | 44 | 319 | 3.0 | 7.0 | 0.00 | 0.00 | 0.00 | 74 | 992.7 |
| 20260508120903 | 44 | 323 | 1.0 | 5.0 | 0.00 | 0.00 | 0.00 | 75 | 992.7 |
| 20260508120003 | 44 | 0 | 0.0 | 0.0 | 0.00 | 0.00 | 0.00 | 74 | 992.5 |
| 20260508115403 | 44 | 0 | 0.0 | 0.0 | 0.00 | 0.00 | 0.00 | 74 | 992.5 |
| 20260508114503 | 45 | 153 | 0.0 | 2.0 | 0.00 | 0.00 | 0.00 | 72 | 992.5 |
| 20260508113817 | 46 | 140 | 0.0 | 2.0 | 0.00 | 0.00 | 0.00 | 71 | 992.4 |
| 20260508112703 | 46 | 140 | 0.0 | 1.0 | 0.00 | 0.00 | 0.00 | 70 | 992.2 |
| 20260508112018 | 46 | 89 | 0.0 | 3.0 | 0.00 | 0.00 | 0.00 | 68 | 992.3 |
| 20260508110904 | 47 | 12 | 1.0 | 3.0 | 0.00 | 0.00 | 0.00 | 67 | 992.3 |
| 20260508110003 | 47 | 11 | 1.0 | 4.0 | 0.00 | 0.00 | 0.00 | 67 | 992.3 |
| 20260508105403 | 47 | 9 | 0.0 | 2.0 | 0.00 | 0.00 | 0.00 | 67 | 992.3 |
| 20260508104503 | 47 | 5 | 1.0 | 3.0 | 0.00 | 0.00 | 0.00 | 67 | 992.3 |
| 20260508103603 | 48 | 5 | 1.0 | 3.0 | 0.00 | 0.00 | 0.00 | 66 | 992.3 |
| 20260508102703 | 48 | 5 | 1.0 | 3.0 | 0.00 | 0.00 | 0.00 | 66 | 992.3 |
| 20260508101803 | 48 | 5 | 0.0 | 1.0 | 0.00 | 0.00 | 0.00 | 63 | 992.3 |
| 20260508100903 | 48 | 2 | 1.0 | 3.0 | 0.00 | 0.00 | 0.00 | 62 | 992.3 |
| 20260508100004 | 49 | 332 | 2.0 | 4.0 | 0.00 | 0.00 | 0.00 | 61 | 992.3 |
| 20260508095403 | 50 | 307 | 1.0 | 3.0 | 0.00 | 0.00 | 0.00 | 61 | 992.4 |
| 20260508094503 | 51 | 286 | 0.0 | 1.0 | 0.00 | 0.00 | 0.00 | 58 | 992.3 |
| 20260508093603 | 51 | 0 | 0.0 | 0.0 | 0.00 | 0.00 | 0.00 | 56 | 992.4 |
| 20260508092703 | 51 | 286 | 0.0 | 1.0 | 0.00 | 0.00 | 0.00 | 55 | 992.7 |
| 20260508091803 | 52 | 286 | 0.0 | 2.0 | 0.00 | 0.00 | 0.00 | 54 | 992.6 |
| 20260508090903 | 52 | 287 | 2.0 | 5.0 | 0.00 | 0.00 | 0.00 | 54 | 992.5 |
| 20260508090003 | 52 | 288 | 1.0 | 3.0 | 0.00 | 0.00 | 0.00 | 54 | 992.5 |
| 20260508085403 | 52 | 288 | 2.0 | 5.0 | 0.00 | 0.00 | 0.00 | 53 | 992.4 |
| 20260508084504 | 52 | 288 | 2.0 | 4.0 | 0.00 | 0.00 | 0.00 | 52 | 992.5 |
| 20260508083818 | 53 | 270 | 3.0 | 8.0 | 0.00 | 0.00 | 0.00 | 52 | 992.6 |
| 20260508082703 | 53 | 290 | 1.0 | 4.0 | 0.00 | 0.00 | 0.00 | 51 | 992.6 |
| 20260508081803 | 54 | 290 | 2.0 | 4.0 | 0.00 | 0.00 | 0.00 | 49 | 992.7 |
| 20260508080903 | 55 | 294 | 2.0 | 5.0 | 0.00 | 0.00 | 0.00 | 48 | 992.6 |
| 20260508080003 | 55 | 314 | 2.0 | 4.0 | 0.00 | 0.00 | 0.00 | 48 | 992.7 |
| 20260508075404 | 56 | 312 | 3.0 | 7.0 | 0.00 | 0.00 | 0.00 | 48 | 992.8 |
| 20260508074503 | 56 | 310 | 2.0 | 6.0 | 0.00 | 0.00 | 0.00 | 46 | 992.9 |
| 20260508073603 | 57 | 272 | 3.0 | 7.0 | 0.00 | 0.00 | 0.00 | 44 | 992.8 |
| 20260508072703 | 56 | 296 | 2.0 | 7.0 | 0.00 | 0.00 | 0.00 | 43 | 992.8 |
| 20260508071803 | 56 | 353 | 0.0 | 3.0 | 0.00 | 0.00 | 0.00 | 45 | 992.9 |
| 20260508070903 | 57 | 345 | 0.0 | 3.0 | 0.00 | 0.00 | 0.00 | 44 | 992.9 |
| 20260508070004 | 57 | 346 | 1.0 | 4.0 | 0.00 | 0.00 | 0.00 | 43 | 992.9 |
| 20260508065403 | 57 | 347 | 1.0 | 4.0 | 0.00 | 0.00 | 0.00 | 42 | 992.9 |
| 20260508064504 | 58 | 349 | 1.0 | 4.0 | 0.00 | 0.00 | 0.00 | 41 | 992.8 |
| 20260508063603 | 58 | 353 | 2.0 | 5.0 | 0.00 | 0.00 | 0.00 | 39 | 992.8 |
| 20260508062918 | 58 | 347 | 3.0 | 6.0 | 0.00 | 0.00 | 0.00 | 40 | 992.8 |
| 20260508061803 | 59 | 354 | 3.0 | 8.0 | 0.00 | 0.00 | 0.00 | 39 | 992.8 |